Greenland, New Hampshire, United States (03840)
Lat: 43.04N, Lon: 70.83W
Wx Zone: NHZ014
Local Info
Past Weather Observations for Sunday, September 28, 2014

NOTE: This archive is for the closest National Weather Service station to Greenland. Information may differ from the station used for current weather conditions.

Click here for Long-term Archive

Time Weather Temperature Dewpoint Humidity Pressure Winds Precip Visibility
23:58
Overcast
63°F / 17°C 61°F / 16°C 94% 29.95 in
(1014 mb)
SSW 3.5 mph
(SSW 6 kph)
- 10SM
22:58
Mostly Cloudy
63°F / 17°C 61°F / 16°C 94% 29.95 in
(1014 mb)
SSW 2.3 mph
(SSW 4 kph)
- 10SM
21:58
Mostly Cloudy
66°F / 19°C 61°F / 16°C 83% 29.98 in
(1015 mb)
SSW 3.5 mph
(SSW 6 kph)
- 10SM
20:58
Partly Cloudy
68°F / 20°C 63°F / 17°C 83% 29.98 in
(1015 mb)
SSW 4.6 mph
(SSW 7 kph)
- 10SM
19:58
Partly Cloudy
70°F / 21°C 61°F / 16°C 73% 29.98 in
(1015 mb)
W 4.6 mph
(W 7 kph)
- 10SM
18:58
Partly Cloudy
70°F / 21°C 63°F / 17°C 78% 29.98 in
(1015 mb)
SSE 3.5 mph
(SSE 6 kph)
- 10SM
17:58
Partly Cloudy
72°F / 22°C 63°F / 17°C 73% 29.98 in
(1015 mb)
SE 2.3 mph
(SE 4 kph)
- 10SM
16:58
Mostly Cloudy
77°F / 25°C 64°F / 18°C 65% 29.98 in
(1015 mb)
SSE 5.8 mph
(SSE 9 kph)
- 10SM
15:58
Partly Cloudy
84°F / 29°C 63°F / 17°C 48% 29.98 in
(1015 mb)
SW 4.6 mph
(SW 7 kph)
- 10SM
14:58
Partly Cloudy
86°F / 30°C 61°F / 16°C 43% 30.01 in
(1016 mb)
SSW 5.8 mph
(SSW 9 kph)
- 10SM
13:58
Partly Cloudy
86°F / 30°C 61°F / 16°C 43% 30.01 in
(1016 mb)
W 8.1 mph
(W 13 kph)
- 10SM
12:58
Partly Cloudy
86°F / 30°C 61°F / 16°C 43% 30.04 in
(1017 mb)
SSW 8.1 mph
(SSW 13 kph)
- 10SM
11:58
Clear
84°F / 29°C 61°F / 16°C 45% 30.04 in
(1017 mb)
Variable 5.8 mph
(Variable 9 kph)
- 10SM
10:58
Clear
81°F / 27°C 63°F / 17°C 54% 30.06 in
(1018 mb)
SSW 5.8 mph
(SSW 9 kph)
- 10SM
09:58
Clear
77°F / 25°C 63°F / 17°C 61% 30.09 in
(1019 mb)
SSW 4.6 mph
(SSW 7 kph)
- 10SM
08:58
Clear
70°F / 21°C 66°F / 19°C 88% 30.12 in
(1020 mb)
SSW 5.8 mph
(SSW 9 kph)
- 10SM
07:58
Clear
64°F / 18°C 63°F / 17°C 94% 30.12 in
(1020 mb)
SSE 3.5 mph
(SSE 6 kph)
- 10SM
06:58
Clear
Fog And Mist
59°F / 15°C 57°F / 14°C 94% 30.15 in
(1021 mb)
SSW 2.3 mph
(SSW 4 kph)
- 6SM
06:25
Partly Cloudy
Fog And Mist
55°F / 13°C 54°F / 12°C 94% 30.15 in
(1021 mb)
SW 1.2 mph
(SW 2 kph)
- 4SM
06:09
Clear
Fog And Mist
55°F / 13°C 55°F / 13°C 100% 30.15 in
(1021 mb)
SSW 2.3 mph
(SSW 4 kph)
- 1SM
05:58
Clear
Fog
54°F / 12°C 54°F / 12°C 100% 30.12 in
(1020 mb)
WNW 2.3 mph
(WNW 4 kph)
- 4SM
05:16
Clear
Fog
54°F / 12°C 54°F / 12°C 100% 30.12 in
(1020 mb)
SSW 2.3 mph
(SSW 4 kph)
- 3SM
04:58
Clear
Fog And Mist
54°F / 12°C 52°F / 11°C 94% 30.12 in
(1020 mb)
SSW 2.3 mph
(SSW 4 kph)
- 4SM
03:58
Clear
Fog And Mist
55°F / 13°C 55°F / 13°C 100% 30.12 in
(1020 mb)
W 2.3 mph
(W 4 kph)
- 4SM
02:58
Clear
Fog And Mist
57°F / 14°C 55°F / 13°C 94% 30.12 in
(1020 mb)
SSW 4.6 mph
(SSW 7 kph)
- 4SM
01:58
Clear
Fog And Mist
57°F / 14°C 55°F / 13°C 94% 30.12 in
(1020 mb)
Calm - 6SM
00:58
Clear
Fog And Mist
57°F / 14°C 55°F / 13°C 94% 30.15 in
(1021 mb)
Calm - 5SM
Time Weather Temperature Dewpoint Humidity Pressure Winds Precip Visibility


Weather for websites

WeatherForYou.com, LLC is not responsible for any damages or problems caused by this service. Current weather conditions are obtained from the closest station including government and personal stations which may have varying degrees of accuracy. Weather forecasts are derived from the NOAA NDFD. Like all things, this site belongs to Jesus Christ... He just trusts me to maintain it. If you have any questions or comments email webmaster@weatherforyou.com

Copyright © 2014, WeatherForYou.com LLC. All rights reserved.